This is the latest recevied weather packets stored in our database for station/object T10BNorth. If no packets are shown the sender has not sent any weather packets the latest 10 day(s).
| Time | Temp. | Humidity | Pressure | Rain* | Wind** | Luminosity | Snow |
|---|---|---|---|---|---|---|---|
| 1777658423 | 10.56° C | 56% | 1007.8 hPa | 0 mm | - | 905 W/m² | - |
| 1777658389 | 10.56° C | 53% | 1007.8 hPa | 0 mm | - | 946 W/m² | - |
| 1777658368 | 10.56° C | 53% | 1007.6 hPa | 0 mm | - | 925 W/m² | - |
| 1777658240 | 10.56° C | 55% | 1007.6 hPa | 0 mm | - | 879 W/m² | - |
| 1777658211 | 10.56° C | 53% | 1007.6 hPa | 0 mm | - | 879 W/m² | - |
| 1777658118 | 10° C | 54% | 1007.8 hPa | 0 mm | - | 881 W/m² | - |
| 1777658083 | 10° C | 57% | 1007.6 hPa | 0 mm | - | 888 W/m² | - |
| 1777658062 | 10° C | 56% | 1007.6 hPa | 0 mm | - | 875 W/m² | - |
| 1777657932 | 10° C | 57% | 1007.6 hPa | 0 mm | - | 872 W/m² | - |
| 1777657870 | 10° C | 58% | 1007.8 hPa | 0 mm | - | 870 W/m² | - |
| 1777657812 | 10° C | 56% | 1007.6 hPa | 0 mm | - | 868 W/m² | - |
| 1777657751 | 10° C | 55% | 1007.8 hPa | 0 mm | - | 874 W/m² | - |
| 1777657696 | 10° C | 55% | 1007.6 hPa | 0 mm | - | 893 W/m² | - |
| 1777657617 | 10° C | 54% | 1007.8 hPa | 0 mm | - | 905 W/m² | - |
| 1777657557 | 10° C | 55% | 1007.8 hPa | 0 mm | - | 912 W/m² | - |
| 1777657497 | 10° C | 54% | 1007.6 hPa | 0 mm | - | 914 W/m² | - |
| 1777657438 | 10° C | 55% | 1007.8 hPa | 0 mm | - | 912 W/m² | - |
| 1777657382 | 10° C | 55% | 1007.8 hPa | 0 mm | - | 919 W/m² | - |
| 1777657311 | 10° C | 55% | 1007.8 hPa | 0 mm | - | 812 W/m² | - |
| 1777657252 | 10° C | 54% | 1007.8 hPa | 0 mm | - | 812 W/m² | - |
| 1777657191 | 10° C | 57% | 1007.8 hPa | 0 mm | - | 891 W/m² | - |
| 1777657131 | 10° C | 58% | 1007.6 hPa | 0 mm | - | 889 W/m² | - |
| 1777657076 | 10° C | 57% | 1007.6 hPa | 0 mm | - | 884 W/m² | - |
| 1777657008 | 10° C | 57% | 1007.6 hPa | 0 mm | - | 889 W/m² | - |
| 1777656949 | 10° C | 58% | 1007.6 hPa | 0 mm | - | 886 W/m² | - |
* Rain latest hour (hover to see other rain measurements)
** Current wind speed in m/s (hover to see current wind gust speed)